Regional Weather Roundup
Issued by NWS

Home | Current Version | Previous Version | Graphics & Text | Print | Product List | Glossary On
Versions: 1 2 3 4 5 6 7 8 9 10 11 12 13 14 15 16 17 18 19 20 21 22 23 24 25 26 27 28 29 30 31 32 33 34 35 36 37 38 39 40 41 42 43 44 45 46 47 48 49 50
000
ASUS43 KFSD 291210
RWRSD

WEATHER ROUNDUP FOR SOUTH DAKOTA
NATIONAL WEATHER SERVICE SIOUX FALLS SD
700 AM CDT FRI JUL 29 2016

NOTE: "FAIR" INDICATES FEW OR NO CLOUDS BELOW 12,000 FEET WITH NO
SIGNIFICANT WEATHER AND/OR OBSTRUCTIONS TO VISIBILITY.


SDZ001>005-009-010-012>017-291300-
NORTHWEST AND NORTH CENTRAL SOUTH DAKOTA

CITY           SKY/WX    TMP DP  RH WIND       PRES   REMARKS
BUFFALO          N/A     61  59  93 S9        30.06S
FAITH            N/A     56  55  97 CALM      30.11S
MOBRIDGE       CLOUDY    67  59  75 E6        30.06S
$$

SDZ012>016-024>037-041>051-057-063-072>074-291300-
SOUTHWEST AND SOUTH CENTRAL SOUTH DAKOTA

CITY           SKY/WX    TMP DP  RH WIND       PRES   REMARKS
RAPID CTY ARPT CLEAR     52  52 100 CALM      30.13S FOG
PIERRE         MOCLDY    62  61  96 SW5       30.08R
CUSTER         CLEAR     49  46  90 CALM      30.22F
ELLSWORTH AFB  CLEAR     57  57 100 CALM      30.12
PHILIP         FOG       58  58 100 W3        30.11R VSB<1/4
PINE RIDGE     FOG       56  56 100 CALM      30.13S VSB<1/4
WINNER         PTSUNNY   64  62  93 CALM      30.10S FOG
$$

SDZ004>011-016>023-039-040-291300-
NORTHEAST SOUTH DAKOTA

CITY           SKY/WX    TMP DP  RH WIND       PRES   REMARKS
ABERDEEN       MOCLDY    63  60  90 CALM      30.09S
WATERTOWN      CLEAR     62  57  83 CALM      30.09S
BROOKINGS      CLEAR     55  53  93 NE3       30.09R
SISSETON         N/A     59  58  96 CALM      30.08R
$$

SDZ017-020-022-023-036>040-048>070-291300-
SOUTHEAST SOUTH DAKOTA

CITY           SKY/WX    TMP DP  RH WIND       PRES   REMARKS
SIOUX FALLS    PTCLDY    57  54  89 CALM      30.08R
HURON          CLEAR     57  54  89 CALM      30.09R
CHAMBERLAIN    PTCLDY    65  65 100 CALM      30.09S FOG
MITCHELL       CLOUDY    58  56  93 NE3       30.09R
YANKTON        MOCLDY    57  54  88 N3        30.07R
$$

ABBREVIATIONS USED IN REMARKS
   TC - TEMPERATURE IN CELSIUS
  WCI - WIND CHILL INDEX
   HX - HEAT INDEX
  VSB - VISIBILITY




USA.gov is the U.S. government's official web portal to all federal, state and local government web resources and services.